Weather History for Fort Sill, OK

Change the Weather History Date:

Friday, February 3, 2012

  Actual Average Record
Temperature  
Mean Temperature 58 °F -  
Max Temperature 71 °F 50 °F 80 °F (1962)
Min Temperature 45 °F 27 °F 2 °F (1985)
Degree Days  
Heating Degree Days 7    
Growing Degree Days 8 (Base 50)    
Moisture  
Dew Point 57 °F    
Average Humidity 90    
Maximum Humidity 100    
Minimum Humidity 61    
Precipitation  
Precipitation 0.06 in - - ()
Sea Level Pressure  
Sea Level Pressure 29.89 in    
Wind  
Wind Speed 16 mph (SSW)    
Max Wind Speed 22 mph    
Max Gust Speed 36 mph    
Visibility 9 miles    
Events Rain , Thunderstorm    
Averages and records for this station are not official NWS values.
T = Trace of Precipitation, MM = Missing Value Source: NWS Daily Summary

Daily Weather History Graph

Daily Weather History Graph

Search for Another Location

Airport:

Trip Planner

Search our weather history database for the weather conditions in past years. The results will help you decide how hot, cold, wet, or windy it might be!

Date:

Astronomy

Feb. 03, 2012 Rise Set
Actual Time 7:30 AM CST 6:04 PM CST
Civil Twilight 7:04 AM CST 6:31 PM CST
Nautical Twilight 6:34 AM CST 7:01 PM CST
Astronomical Twilight 6:04 AM CST 7:30 PM CST
Moon 2:12 PM CST (2/3) 4:02 AM CST (2/3)
Length of Visible Light 11h 26m
Length of Day
10h 34m
Waxing Gibbous, 82% of the Moon is Illuminated
Feb 3
Waxing Gibbous
Feb 7
Full
Feb 14
Last Quarter
Feb 21
New
Feb 29
First Quarter

Hourly Weather History & Observations

Time (CST) Temp. Windchill Dew Point Humidity Pressure Visibility Wind Dir Wind Speed Gust Speed Precip Events Conditions
12:06 AM 60.8 °F - 60.8 °F 100% 29.88 in 6.0 mi SSE 19.6 mph 28.8 mph N/A Rain Light Rain
12:07 AM 60.8 °F - 60.8 °F 100% 29.88 in 7.0 mi South 18.4 mph 28.8 mph N/A   Overcast
12:33 AM 60.8 °F - 60.8 °F 100% 29.89 in 8.0 mi SSE 18.4 mph - N/A   Overcast
12:35 AM 60.8 °F - 60.8 °F 100% 29.89 in 7.0 mi SSE 18.4 mph 25.3 mph N/A   Light Drizzle
12:37 AM 60.8 °F - 60.8 °F 100% 29.89 in 5.0 mi SSE 20.7 mph 28.8 mph N/A Rain Rain
12:38 AM 60.8 °F - 60.8 °F 100% 29.89 in 4.0 mi SSE 20.7 mph 28.8 mph N/A Rain , Thunderstorm Thunderstorms and Rain
12:40 AM 60.8 °F - 60.8 °F 100% 29.89 in 4.0 mi SSE 17.3 mph 28.8 mph N/A Rain , Thunderstorm Light Thunderstorms and Rain
12:55 AM 61.2 °F - 61.2 °F 100% 29.89 in 9.0 mi SSW 12.7 mph 31.1 mph 0.05 in Rain , Thunderstorm Light Thunderstorms and Rain
12:58 AM 60.8 °F - 60.8 °F 100% 29.89 in 9.0 mi South 13.8 mph - N/A Thunderstorm Thunderstorm
1:03 AM 60.8 °F - 60.8 °F 100% 29.89 in 8.0 mi South 18.4 mph - N/A   Overcast
1:55 AM 61.2 °F - 61.2 °F 100% 29.88 in 9.0 mi SSE 15.0 mph - 0.00 in   Overcast
2:17 AM 60.8 °F - 60.8 °F 100% 29.87 in 10.0 mi SSE 16.1 mph - N/A   Overcast
2:55 AM 61.7 °F - 61.7 °F 100% 29.86 in 10.0 mi SSE 16.1 mph - N/A   Overcast
3:55 AM 62.1 °F - 62.1 °F 100% 29.87 in 10.0 mi SSE 13.8 mph - N/A   Overcast
3:59 AM 62.6 °F - 62.6 °F 100% 29.87 in 10.0 mi SSE 15.0 mph - N/A   Overcast
4:55 AM 62.1 °F - 62.1 °F 100% 29.86 in 10.0 mi SSE 13.8 mph - N/A   Overcast
5:51 AM 62.6 °F - 62.6 °F 100% 29.87 in 10.0 mi SSE 13.8 mph - N/A   Overcast
5:55 AM 62.1 °F - 62.1 °F 100% 29.87 in 10.0 mi SSE 12.7 mph - N/A   Overcast
6:41 AM 62.6 °F - 62.6 °F 100% 29.87 in 10.0 mi SSE 15.0 mph - N/A   Overcast
6:55 AM 61.9 °F - 61.9 °F 100% 29.87 in 10.0 mi SSE 15.0 mph - N/A   Overcast
7:23 AM 62.6 °F - 62.6 °F 100% 29.87 in 10.0 mi SSE 15.0 mph - N/A   Overcast
7:44 AM 62.6 °F - 62.6 °F 100% 29.88 in 10.0 mi SSE 12.7 mph - N/A   Overcast
7:55 AM 61.9 °F - 61.9 °F 100% 29.88 in 10.0 mi SSE 15.0 mph - N/A   Overcast
8:24 AM 62.6 °F - 62.6 °F 100% 29.88 in 10.0 mi SSE 16.1 mph 21.9 mph N/A   Overcast
8:55 AM 62.4 °F - 62.4 °F 100% 29.88 in 10.0 mi SSE 16.1 mph 25.3 mph N/A   Overcast
9:03 AM 62.6 °F - 62.6 °F 100% 29.88 in 10.0 mi SSE 18.4 mph - N/A   Overcast
9:55 AM 62.8 °F - 62.8 °F 100% 29.87 in 10.0 mi South 15.0 mph 23.0 mph N/A   Overcast
10:24 AM 62.6 °F - 62.6 °F 100% 29.87 in 10.0 mi South 15.0 mph - N/A   Overcast
10:40 AM 64.4 °F - 64.4 °F 100% 29.87 in 10.0 mi South 17.3 mph 25.3 mph N/A   Overcast
10:55 AM 64.2 °F - 64.2 °F 100% 29.86 in 10.0 mi South 21.9 mph - N/A   Overcast
10:57 AM 64.4 °F - 64.4 °F 100% 29.86 in 10.0 mi South 21.9 mph - N/A   Overcast
11:39 AM 66.2 °F - 66.2 °F 100% 29.85 in 10.0 mi South 15.0 mph - N/A   Mostly Cloudy
11:47 AM 68.0 °F - 66.2 °F 94% 29.85 in 10.0 mi South 16.1 mph - N/A   Mostly Cloudy
11:48 AM 68.0 °F - 66.2 °F 94% 29.85 in 10.0 mi South 17.3 mph - N/A   Mostly Cloudy
11:55 AM 67.3 °F - 65.7 °F 95% 29.85 in 10.0 mi South 16.1 mph 25.3 mph N/A   Mostly Cloudy
12:55 PM 67.8 °F - 64.8 °F 90% 29.83 in 10.0 mi SSW 12.7 mph 20.7 mph N/A Thunderstorm Overcast
1:22 PM 66.2 °F - 55.4 °F 68% 29.83 in 10.0 mi West 10.4 mph 26.5 mph N/A   Overcast
1:26 PM 64.4 °F - 53.6 °F 68% 29.83 in 10.0 mi West 6.9 mph 26.5 mph N/A Rain Light Rain
1:28 PM 64.4 °F - 53.6 °F 68% 29.83 in 10.0 mi West 5.8 mph - N/A   Light Drizzle
1:33 PM 64.4 °F - 53.6 °F 68% 29.83 in 10.0 mi SW 5.8 mph - N/A Rain , Thunderstorm Light Rain
1:55 PM 66.0 °F - 57.6 °F 74% 29.81 in 10.0 mi WSW 5.8 mph - 0.00 in   Light Drizzle
1:56 PM 66.2 °F - 57.2 °F 73% 29.81 in 10.0 mi WSW 6.9 mph - N/A   Light Drizzle
1:58 PM 66.2 °F - 57.2 °F 73% 29.81 in 10.0 mi WSW 6.9 mph - N/A   Mostly Cloudy
2:55 PM 71.2 °F - 60.4 °F 69% 29.80 in 10.0 mi NNW 11.5 mph - 0.00 in   Partly Cloudy
3:55 PM 70.2 °F - 56.3 °F 61% 29.83 in 10.0 mi WNW 13.8 mph 23.0 mph N/A   Clear
4:55 PM 67.1 °F - 54.3 °F 63% 29.86 in 10.0 mi NW 16.1 mph - N/A   Mostly Cloudy
5:48 PM 60.8 °F - 53.6 °F 77% 29.91 in 10.0 mi NW 19.6 mph - N/A   Mostly Cloudy
5:54 PM 59.0 °F - 53.6 °F 82% 29.92 in 10.0 mi NW 19.6 mph 24.2 mph N/A   Scattered Clouds
5:55 PM 58.8 °F - 53.1 °F 81% 29.92 in 10.0 mi NW 19.6 mph 24.2 mph N/A   Scattered Clouds
6:32 PM 53.6 °F - 50.0 °F 88% 29.95 in 10.0 mi NW 17.3 mph 27.6 mph N/A   Mostly Cloudy
6:55 PM 52.2 °F - 49.6 °F 91% 29.98 in 10.0 mi NW 17.3 mph - N/A   Mostly Cloudy
7:55 PM 51.1 °F - 46.4 °F 84% 30.00 in 10.0 mi NW 18.4 mph 27.6 mph N/A   Overcast
8:25 PM 50.0 °F - 44.6 °F 82% 30.02 in 10.0 mi NW 18.4 mph 26.5 mph N/A   Mostly Cloudy
8:37 PM 50.0 °F - 44.6 °F 82% 30.03 in 10.0 mi NW 18.4 mph 28.8 mph N/A   Scattered Clouds
8:55 PM 49.6 °F - 43.9 °F 81% 30.03 in 10.0 mi NW 20.7 mph 27.6 mph N/A   Partly Cloudy
9:13 PM 50.0 °F - 42.8 °F 76% 30.04 in 10.0 mi NW 19.6 mph 32.2 mph N/A   Mostly Cloudy
9:55 PM 47.7 °F - 40.6 °F 77% 30.05 in 10.0 mi NNW 19.6 mph 35.7 mph 0.01 in   Mostly Cloudy
10:22 PM 46.4 °F 39.5 °F 39.2 °F 76% 30.05 in 10.0 mi NNW 17.3 mph 28.8 mph N/A   Scattered Clouds
10:55 PM 45.9 °F 40.4 °F 37.6 °F 73% 30.05 in 10.0 mi NNW 11.5 mph - N/A   Clear
11:55 PM 45.3 °F 38.4 °F 37.9 °F 75% 30.06 in 10.0 mi NW 16.1 mph 24.2 mph N/A   Clear